Location: *
(37.5724°S, 58.0067°E)
Time: 10:39:28
(UTC+00:00)

SL-16 R/B - Pass Details

Date: 26 September 2020
Orbit: 985 x 1007 km, 99.5° (Epoch: 29 October)

Event Time Altitude Azimuth Distance (km) Brightness Sun altitude
Rises 22:30:51 0° 163° (SSE) 3,767 6.2 -37.3°
Reaches altitude 10° 22:33:23 10° 160° (SSE) 2,808 5.5 -36.9°
Enters shadow 22:38:13 52° 135° (SE) 1,248 3.2 -36.2°
